Regional Weather Roundup
Issued by NWS

Home | Current Version | Previous Version | Graphics & Text | Print | Product List | Glossary On
Versions: 1 2 3 4 5 6 7 8 9 10 11 12 13 14 15 16 17 18 19 20 21 22 23 24 25 26 27 28 29 30 31 32 33 34 35 36 37 38 39 40 41 42 43 44 45 46 47 48 49 50
000
ASUS45 KCYS 310810
RWRWY

WYOMING REGIONAL WEATHER ROUNDUP
NATIONAL WEATHER SERVICE CHEYENNE WY
100 AM MST SAT JAN 31 2015

NOTE:  "FAIR" INDICATES FEW OR NO CLOUDS BELOW 12,000 FEET
WITH NO SIGNIFICANT WEATHER AND/OR OBSTRUCTIONS TO VISIBILITY.

WYZ001-310900-
YELLOWSTONE NATIONAL PARK

CITY           SKY/WX    TMP DP  RH WIND       PRES   REMARKS
LK YELLOWSTONE   N/A      0  -5  79 CALM      30.08F
W YELLOWSTONE  NOT AVBL

$$
WYZ002>013-054>058-071-098>099-310900-
NORTHERN WYOMING

CITY           SKY/WX    TMP DP  RH WIND       PRES   REMARKS
JACKSON        FAIR       9   9 100 N5        30.08F WCI   0
CODY           FAIR      30  18  59 SW7       29.99F WCI  23
GREYBULL       FOG       25  23  92 CALM      30.06F VSB 1/4
WORLAND        FAIR      19  17  92 CALM      30.04F
SHERIDAN       FAIR      24  19  81 S5        29.98F WCI  18
BUFFALO        FAIR      34  15  46 S8        29.99F WCI  27
GILLETTE       FAIR      31  22  69 CALM      30.02F
HULETT           N/A    N/A N/A N/A MISG        N/A
NEWCASTLE      FAIR      30  25  80 CALM      30.07S

$$
WYZ014>020-022>026-101>103-310900-
CENTRAL WYOMING

CITY           SKY/WX    TMP DP  RH WIND       PRES   REMARKS
BIG PINEY      CLOUDY    26  23  88 NE5       30.04F WCI  20
PINEDALE       CLOUDY    23  21  93 NW6       30.03F WCI  16
DUBOIS         FAIR      27  16  63 W8        30.03F WCI  18
LANDER         CLOUDY    31  24  75 CALM      30.03F
RIVERTON       FAIR      30  27  88 W5        30.04F WCI  25
CASPER         FAIR      29  25  85 NW5       30.04F WCI  24
DOUGLAS        FAIR      28  24  85 CALM      30.06F

$$
WYZ021-027>030-104>119-310900-
SOUTHERN WYOMING

CITY           SKY/WX    TMP DP  RH WIND       PRES   REMARKS
EVANSTON       FLURRIES  31  27  85 E8        30.00F WCI  23
KEMMERER       CLOUDY    30  28  93 N8        30.02S WCI  23
FORT BRIDGER   FOG       30  30 100 NE12      30.04S VSB 1   WCI  20
ROCK SPRINGS   FLURRIES  28  25  88 NE12      30.00F WCI  18
DIXON          CLOUDY    33  32  94 CALM      29.95F
RAWLINS        CLOUDY    31  22  69 NE16      29.98F WCI  20
SARATOGA       CLOUDY    32  30  93 NW3       29.97F
LARAMIE        CLOUDY    29  22  75 CALM      29.99F
CHEYENNE       CLOUDY    32  23  69 NW5       30.00F WCI  27
TORRINGTON     FAIR      34  24  67 NW7       30.03F WCI  28
PINE BLUFFS    CLOUDY    32  28  86 N6        30.01F WCI  26

$$



USA.gov is the U.S. government's official web portal to all federal, state and local government web resources and services.